Theta_e
354 351 352 353 354 354 352 353 352 354 354 353 353 354 355 356 356 354 353 353 353 352 352 353 354 355 355 355 353 353 353 353 352 351 351 351 350 349 349 350 350 352 353 352 351 349 349 350 350 348 346 344 343 342 340 343 351 352 350 351 350 351 351 351 352 353 354 353 353 354 352 352 350 347 346 347 349 348 348 345 341 346 348 348 349
353 351 352 353 354 355 354 353 351 352 352 352 353 353 354 355 355 355 356 355 354 354 355 355 355 355 355 356 354 353 353 353 353 352 352 351 351 349 349 349 349 351 352 351 349 349 349 350 349 346 344 343 342 342 341 343 348 350 352 352 352 352 350 349 350 351 352 352 354 355 354 354 353 351 347 344 346 347 345 344 342 344 347 347 347
352 352 352 352 354 354 356 354 351 351 350 351 352 353 353 354 354 354 355 355 355 354 354 354 355 356 355 355 354 353 353 353 354 354 354 353 352 352 351 350 350 350 350 349 348 349 350 349 347 345 343 343 342 342 342 343 345 349 351 351 351 350 350 349 349 350 351 352 354 354 355 354 353 353 351 345 344 346 347 346 346 344 346 347 346
352 352 351 353 354 354 356 356 353 351 350 351 350 352 353 353 352 353 354 355 355 353 351 352 353 354 354 355 354 353 352 352 354 354 355 354 353 352 352 351 351 350 349 349 349 349 349 347 345 344 343 342 341 341 342 343 344 348 349 348 350 350 350 349 351 352 353 354 352 352 353 352 352 354 353 348 344 346 348 348 349 347 344 346 346
352 351 352 354 354 355 356 357 355 353 351 351 351 352 354 353 350 351 354 355 355 351 350 352 352 353 354 355 354 354 352 351 352 354 355 354 354 353 352 352 352 349 349 349 348 348 347 346 344 344 344 344 342 342 342 342 344 348 349 348 349 352 352 352 352 353 353 352 349 349 350 350 351 354 354 351 347 344 347 349 349 347 345 345 346
353 352 352 354 354 356 355 356 356 353 352 351 353 353 355 355 351 351 353 355 355 351 352 353 353 353 353 353 354 353 353 352 352 353 354 354 353 352 352 353 354 351 350 350 348 346 345 345 345 345 345 346 345 344 342 342 343 347 350 350 350 352 353 353 353 353 351 348 347 348 349 349 351 354 354 353 349 343 344 349 349 346 346 348 348
352 352 354 354 354 355 354 355 355 355 354 354 353 352 354 355 353 352 352 355 354 351 352 353 352 353 353 352 353 353 353 353 352 351 352 352 351 351 351 352 354 354 353 352 349 346 346 346 346 346 347 347 346 345 344 344 343 346 351 351 350 351 352 353 353 352 350 348 348 349 349 350 351 354 355 354 351 346 343 346 347 347 347 347 348
352 353 354 354 354 354 354 354 355 355 355 355 354 353 353 353 353 353 353 354 354 351 351 352 352 353 352 352 352 351 352 352 351 350 350 350 349 349 349 348 353 355 353 353 351 348 347 346 346 346 347 347 346 346 347 347 346 347 350 350 349 350 352 352 352 352 351 350 349 349 349 348 350 352 354 354 352 350 347 346 345 347 349 347 346
353 353 354 354 354 353 353 353 354 353 353 355 355 354 353 352 353 353 353 354 355 353 350 350 352 353 353 352 352 351 351 350 350 350 350 350 350 348 348 348 353 355 353 352 351 350 348 348 347 347 347 347 346 348 349 348 347 347 349 350 350 350 351 352 352 351 350 350 349 349 349 347 347 348 351 352 352 351 350 350 348 346 345 347 348
353 353 355 355 354 353 353 352 353 353 353 354 355 355 353 352 352 352 353 354 355 354 352 350 351 352 352 353 353 353 352 351 351 351 351 351 349 347 348 351 354 354 352 352 351 350 350 350 349 348 348 347 347 348 348 348 347 345 345 347 348 349 351 352 352 350 350 349 349 348 348 348 347 346 347 349 349 349 348 348 349 349 344 345 348
353 353 354 354 354 353 352 352 353 353 353 353 354 354 353 352 352 350 352 353 354 353 352 351 351 349 348 350 351 352 351 350 350 350 349 348 347 348 351 353 354 354 353 352 351 350 350 351 349 349 348 347 347 347 347 347 347 346 344 344 344 346 349 352 351 349 349 349 348 345 345 347 348 347 345 346 346 346 349 347 347 351 349 347 345
352 350 351 354 354 353 351 351 351 352 352 352 352 352 353 353 353 350 350 351 351 351 351 352 352 349 348 347 347 348 348 348 348 348 348 347 349 352 353 354 354 354 353 352 352 351 350 350 349 348 348 347 347 347 347 347 347 347 346 346 345 344 346 349 348 347 349 349 347 345 344 344 346 348 346 344 344 345 349 349 347 350 352 351 345
353 349 350 353 353 352 350 350 351 353 353 353 351 350 352 353 353 350 351 350 348 349 350 352 353 351 351 350 349 350 350 350 351 351 351 351 353 353 353 354 354 353 353 352 352 351 350 349 348 348 348 347 347 347 347 346 346 346 346 347 348 346 345 347 347 348 349 350 348 345 344 343 344 347 347 344 343 344 348 349 348 349 351 352 349
353 349 350 352 352 353 352 350 350 351 352 353 350 349 350 351 351 350 352 352 350 350 351 352 352 353 352 352 353 353 353 353 353 354 354 353 354 354 353 354 353 353 352 352 351 350 349 349 348 349 348 347 347 347 346 346 346 347 347 347 348 349 348 348 348 350 349 350 349 346 345 342 343 347 348 345 342 343 346 349 348 348 349 351 351
353 350 351 351 351 353 353 351 349 348 350 352 350 348 348 350 349 348 350 352 353 353 353 352 351 352 351 351 352 352 353 352 352 353 354 354 354 353 353 354 352 352 352 351 351 350 349 349 348 347 346 345 345 345 346 346 346 347 348 348 349 350 352 351 349 348 348 349 349 347 345 342 343 347 348 347 343 341 344 348 348 347 348 350 350
353 350 351 352 351 350 350 350 349 348 348 350 349 349 349 350 349 346 348 351 353 354 354 354 351 349 350 350 350 351 351 351 352 352 353 353 352 352 353 353 352 351 350 349 348 347 347 346 345 343 342 341 342 344 346 347 348 348 348 349 349 350 352 353 351 348 346 346 348 348 345 342 342 345 348 348 344 341 341 343 346 347 346 347 349
354 351 351 353 351 347 347 348 348 348 348 350 349 350 349 348 349 346 347 350 352 353 354 355 352 349 351 351 350 351 351 351 352 352 352 351 350 350 350 349 347 346 344 342 341 340 340 340 339 338 337 338 338 339 341 343 344 345 347 348 347 347 348 351 352 350 347 345 346 347 346 344 343 343 346 348 346 342 340 340 343 346 346 346 347
354 352 351 353 352 349 347 347 348 348 349 351 349 348 347 346 349 347 347 349 350 352 352 353 353 351 351 351 350 351 350 350 350 350 348 346 345 345 345 343 341 342 341 340 339 338 338 339 340 339 340 341 341 341 342 343 343 346 347 344 343 344 345 347 349 351 350 347 345 347 347 346 344 342 343 347 347 345 343 342 342 343 345 346 347
354 353 352 352 352 351 350 348 347 347 349 351 349 347 347 347 348 348 348 350 350 352 352 351 352 350 351 350 350 350 349 348 347 347 346 345 345 345 346 345 345 347 346 344 343 343 344 345 346 346 347 347 348 348 349 350 350 353 349 342 342 343 344 345 347 349 350 348 347 345 346 347 346 344 343 346 349 347 346 345 343 343 343 345 346
354 353 352 351 351 352 352 350 347 347 348 349 348 348 349 349 348 348 348 350 351 352 351 351 351 350 349 349 349 349 349 348 348 347 347 348 349 349 350 350 349 349 348 347 346 347 347 348 348 348 348 349 349 349 349 351 352 355 351 344 345 345 346 347 347 349 349 347 347 344 345 348 347 346 343 345 349 348 348 347 346 345 344 343 344
354 353 352 351 350 351 351 351 348 346 346 346 348 348 349 349 347 348 349 350 350 351 351 352 351 350 350 350 351 351 349 350 350 349 349 350 351 350 349 350 349 347 347 346 346 347 347 347 347 347 348 348 349 348 347 347 349 353 352 347 346 346 347 349 349 350 350 346 345 344 345 348 349 348 346 345 347 348 347 347 347 346 346 343 343
354 353 352 351 351 350 350 351 349 347 346 347 349 348 348 349 347 349 351 350 350 350 351 352 351 351 352 351 352 351 349 351 351 349 349 350 350 350 349 348 347 346 347 346 345 346 347 347 347 347 348 349 349 349 346 344 343 348 351 351 351 347 345 348 348 350 350 348 346 345 346 349 350 351 350 348 347 346 347 347 346 346 346 346 344
353 353 352 351 351 351 351 351 350 349 348 348 348 349 350 350 349 350 351 351 350 350 350 351 351 352 352 352 352 351 349 350 350 349 349 349 350 350 349 348 347 348 349 348 347 347 348 347 347 349 350 349 347 345 343 341 341 343 347 350 353 350 348 349 349 348 348 348 348 348 348 350 352 352 350 349 348 347 347 348 347 346 346 348 346
352 353 353 352 352 352 352 352 350 349 349 348 347 349 352 352 348 349 351 350 350 350 351 352 352 353 352 353 352 350 349 349 350 351 351 350 348 348 349 349 348 348 350 349 348 347 347 346 347 348 348 346 342 340 340 340 342 344 345 347 351 351 351 353 352 351 350 348 347 348 348 350 352 350 349 347 347 347 346 347 348 348 347 347 347
351 352 352 352 353 352 353 353 351 350 350 348 348 351 353 350 347 349 351 351 351 351 352 352 353 353 353 353 352 350 348 348 350 351 351 349 346 345 347 349 347 346 346 346 345 342 341 342 341 342 341 340 340 340 341 342 343 345 347 348 349 350 351 352 352 352 351 350 349 349 349 351 352 349 348 349 347 347 346 345 346 348 348 347 346
351 351 351 352 352 352 352 352 352 351 350 349 348 351 353 349 347 350 352 352 352 351 351 351 352 352 352 352 351 350 348 349 349 350 350 346 341 342 344 346 344 342 340 340 339 337 336 338 337 338 339 338 340 341 342 343 345 346 348 349 349 348 347 347 347 347 347 347 347 348 347 349 351 347 347 349 348 348 348 347 346 347 348 348 347
351 350 350 351 352 352 352 352 351 350 350 349 349 351 352 350 349 351 351 352 353 351 349 348 349 350 351 351 351 350 349 348 348 348 347 343 341 343 344 344 342 339 338 337 336 336 336 337 337 338 339 339 340 342 344 346 348 350 351 350 348 345 344 344 345 344 344 344 344 345 343 344 346 345 345 345 347 348 348 349 348 348 348 349 349
351 351 351 351 351 351 351 352 351 349 350 350 350 351 352 352 351 351 351 351 352 351 348 346 346 347 348 349 348 347 346 346 345 343 342 342 344 346 346 343 340 338 337 336 335 336 337 337 337 338 339 340 342 345 347 349 349 349 349 348 347 345 345 345 345 344 344 344 343 343 343 343 343 344 344 344 345 346 348 349 349 350 350 350 350
351 351 351 350 351 350 351 352 350 349 350 351 352 352 352 352 352 351 350 350 350 350 348 343 340 341 343 343 344 344 346 347 347 346 345 345 346 346 346 343 340 339 337 335 335 336 337 338 339 339 341 343 345 348 349 349 348 347 347 347 346 345 345 345 346 345 344 344 343 343 343 343 343 343 343 344 345 345 346 348 348 350 351 351 351
351 350 350 349 350 350 351 351 349 349 350 351 352 352 353 352 352 351 350 350 349 349 346 337 334 337 340 341 344 346 349 350 350 350 348 346 346 346 346 345 343 343 341 339 337 338 338 339 340 342 344 345 347 348 348 348 347 347 347 347 346 346 345 346 346 345 344 343 343 343 344 344 344 344 344 344 346 345 345 347 349 349 350 351 351
350 350 350 349 349 349 350 350 349 349 349 351 351 352 352 352 351 350 349 349 348 349 343 336 337 339 342 345 348 349 350 351 351 350 349 348 348 348 347 346 346 346 345 344 343 343 343 344 345 345 346 347 347 347 348 348 348 348 348 348 348 346 346 345 345 345 344 343 343 344 345 345 345 345 345 345 346 346 346 347 348 348 349 350 350
350 350 350 349 349 348 349 349 348 348 348 349 350 351 350 350 350 349 349 348 348 347 340 339 344 345 347 349 350 350 351 351 350 350 349 350 350 350 349 348 347 347 347 347 347 347 347 347 348 348 347 346 347 347 348 348 349 349 349 350 349 348 346 345 345 345 344 344 344 344 345 346 347 348 348 348 348 349 349 348 348 347 348 350 352
350 350 350 349 349 349 348 348 347 347 347 347 348 349 349 348 348 348 348 348 346 342 337 342 348 348 348 349 349 350 350 351 350 350 350 351 351 351 349 347 347 347 348 347 347 347 346 346 346 346 346 346 346 347 348 349 350 351 351 351 351 350 348 345 345 345 345 344 344 344 346 347 349 351 351 351 351 351 351 350 349 349 348 349 351
350 350 350 350 350 349 348 347 346 346 346 346 346 346 347 347 347 347 347 347 343 336 336 343 347 347 348 348 349 349 350 349 349 349 350 351 351 351 348 347 347 347 347 347 346 346 345 345 345 345 345 346 346 348 349 350 351 351 352 352 352 352 349 346 346 346 345 345 345 345 348 351 353 353 352 352 350 350 350 349 349 349 348 349 351
350 350 350 349 349 350 349 347 345 345 345 346 345 344 344 345 346 346 346 345 340 335 339 345 347 348 349 350 349 349 349 349 349 349 349 350 351 351 348 346 347 347 347 347 345 345 346 345 345 346 346 347 347 348 349 351 351 352 352 353 352 351 350 347 348 347 345 345 345 346 350 353 354 353 352 351 351 350 350 350 349 349 349 350 350
350 350 349 349 350 350 349 347 344 344 345 344 344 343 342 343 344 344 343 343 339 339 343 347 349 350 351 352 350 349 349 348 349 349 348 349 351 351 348 347 348 348 347 346 345 346 346 345 345 346 346 347 348 349 351 351 351 352 352 353 353 351 350 349 349 346 346 347 346 346 351 353 353 351 351 351 351 351 350 350 350 350 350 349 348
350 349 349 349 350 350 350 348 344 343 343 343 344 344 341 340 342 342 342 342 342 345 348 349 351 352 352 352 351 350 349 348 349 349 348 348 350 351 350 349 348 348 348 346 346 346 345 346 346 346 347 348 350 351 352 352 351 352 353 352 351 350 350 350 348 346 348 350 349 348 351 353 351 350 350 351 351 350 350 350 350 350 350 349 348
350 349 349 348 349 350 350 348 345 342 343 343 344 344 343 342 343 343 344 344 345 348 350 351 351 351 351 351 351 350 349 349 348 349 348 347 349 351 351 350 349 348 347 346 346 347 346 346 346 346 348 350 352 352 352 351 352 353 352 350 349 350 350 350 347 346 349 351 351 351 352 352 352 351 351 351 351 351 351 350 350 349 349 349 349
350 349 349 349 349 350 351 349 348 344 343 344 343 344 345 347 348 347 347 348 348 348 349 351 351 351 351 350 351 350 349 349 348 349 349 348 348 349 350 350 349 349 348 347 346 347 346 346 347 348 349 350 351 352 351 351 352 352 350 349 349 349 350 350 348 346 348 350 350 350 351 352 352 352 352 351 350 351 351 349 348 348 347 347 347
350 350 349 350 349 350 351 351 350 347 346 346 345 345 347 351 352 350 350 350 350 350 349 350 350 350 351 351 351 350 349 348 348 350 350 349 348 347 347 347 346 348 349 348 347 346 346 345 347 348 348 349 351 352 351 350 351 351 349 349 350 349 349 349 349 349 349 350 350 350 351 351 352 353 352 350 349 350 350 348 347 347 347 347 348
350 350 350 349 350 350 351 352 351 349 349 348 346 346 349 352 353 352 350 350 350 350 350 349 350 349 350 351 351 350 350 349 349 350 350 349 347 345 344 342 343 348 349 349 348 347 347 346 347 347 348 350 352 352 351 350 351 350 350 350 348 347 349 349 349 350 351 350 350 350 350 351 353 352 350 349 349 349 350 348 347 348 349 349 349
350 350 350 349 350 350 351 352 351 351 350 348 346 346 349 351 352 352 350 350 350 351 350 349 349 349 349 350 351 350 350 350 350 350 350 349 347 345 344 342 341 347 351 350 349 349 348 348 348 349 351 352 353 352 350 351 351 350 349 352 352 349 348 348 349 351 350 350 351 351 351 352 352 350 349 350 348 349 350 350 349 349 350 350 349
350 350 350 349 350 350 351 352 352 352 351 349 346 345 348 350 351 352 351 350 350 351 351 350 350 350 349 350 350 349 349 350 350 350 350 350 348 347 346 344 341 345 351 351 351 351 349 350 350 351 352 352 352 351 350 351 352 350 350 354 355 353 353 350 349 350 350 350 350 351 352 352 351 350 350 350 348 349 351 351 350 350 350 350 349
350 350 350 350 350 350 351 352 352 352 352 350 347 345 347 350 352 352 351 351 350 351 351 350 350 350 350 350 349 349 349 349 349 349 348 348 348 347 347 347 343 344 350 351 351 351 351 350 351 352 352 352 351 350 350 352 352 352 353 355 353 354 358 353 349 351 350 351 351 350 351 350 350 351 351 349 348 350 351 351 351 351 350 350 349
351 351 351 351 350 350 350 351 352 352 352 351 350 349 349 351 352 352 352 352 351 351 351 350 350 350 350 350 349 348 348 349 349 348 348 346 347 347 347 349 347 344 348 351 352 351 351 351 351 351 351 352 351 351 351 351 352 352 352 355 354 357 359 351 349 353 351 350 351 350 349 350 350 351 351 349 347 350 351 351 351 350 350 350 350
351 351 351 351 351 351 350 351 352 352 352 352 351 351 351 352 352 352 351 351 351 351 350 350 350 349 349 349 349 348 348 349 349 348 348 346 347 347 347 349 350 347 346 349 352 351 351 351 351 351 351 351 351 352 351 350 352 352 351 352 353 354 354 350 353 357 353 350 350 350 350 350 350 352 352 348 348 350 351 351 351 350 350 350 351
351 351 351 351 351 351 351 351 352 352 352 352 352 352 352 352 352 352 352 351 351 351 350 350 349 349 349 349 349 349 349 350 349 349 348 347 347 347 348 349 351 350 347 347 350 351 351 350 351 351 351 351 352 352 352 351 351 352 352 352 351 351 351 351 354 357 355 354 351 349 350 351 351 353 351 347 349 351 350 351 351 350 350 351 351
350 351 351 351 351 351 351 351 351 352 352 352 352 352 352 353 353 352 352 351 351 351 350 350 349 349 350 350 350 349 350 350 349 349 348 349 348 347 348 350 351 352 350 347 347 349 350 350 351 350 351 351 352 352 352 352 352 352 352 352 352 353 352 352 352 351 354 357 356 353 351 350 351 353 352 347 348 350 350 349 350 349 350 350 351
350 350 351 351 351 351 351 351 352 352 352 352 352 353 353 353 353 352 352 351 351 350 350 350 350 350 350 350 350 350 350 349 349 349 349 349 349 348 349 351 352 352 351 349 346 348 349 350 350 350 350 351 352 352 352 352 351 351 352 353 352 354 354 352 350 349 351 353 358 358 353 351 351 353 352 348 348 349 349 349 349 349 349 348 349
349 349 350 351 350 351 352 352 352 352 352 352 352 353 353 353 352 352 351 351 351 351 351 351 351 351 350 350 350 350 350 349 349 349 349 348 348 349 350 352 353 352 351 350 348 348 349 349 350 349 350 351 351 352 352 352 352 352 352 353 353 354 354 352 349 349 348 348 352 356 353 351 352 353 353 350 349 349 349 350 350 349 350 348 349
349 349 349 350 350 351 351 351 351 351 352 352 353 353 353 353 352 351 351 350 351 351 351 351 351 351 350 350 350 350 349 349 349 349 349 349 348 349 351 353 353 352 351 351 350 349 349 349 349 349 349 350 350 351 352 352 352 351 352 353 353 354 353 353 352 350 347 345 350 354 351 350 351 352 354 353 349 349 350 351 351 350 350 350 349
Wind_Speed
16 17 16 15 13 11 10 11 11 11 13 15 16 19 21 19 19 20 20 18 19 19 19 20 20 21 21 20 20 20 19 18 17 16 16 15 14 14 14 14 14 13 12 11 12 11 10 9 9 10 10 11 11 11 11 12 13 13 15 16 15 15 15 14 15 15 14 13 13 12 13 12 13 13 12 11 11 10 10 10 12 14 13 12 12
19 18 18 17 15 12 12 11 10 9 11 13 14 18 20 17 18 21 22 21 20 20 19 18 18 18 18 18 19 19 18 18 18 16 15 15 14 14 13 13 13 11 11 11 11 10 9 8 8 9 10 10 10 10 11 12 13 14 14 14 14 14 14 14 15 15 15 14 13 11 11 11 10 11 11 11 11 10 10 11 12 14 13 11 11
20 20 18 17 16 14 14 14 12 9 9 10 11 14 16 14 14 17 19 19 19 19 19 17 16 16 16 16 17 18 17 17 17 16 15 14 14 13 12 12 11 10 10 10 10 9 8 8 8 8 10 10 10 10 10 11 12 13 13 13 13 13 13 13 14 14 13 13 12 11 10 10 9 9 10 11 10 11 11 11 11 12 12 11 11
20 21 19 17 15 14 15 17 16 13 10 9 9 11 13 12 11 14 15 16 17 17 18 17 16 15 15 15 16 17 17 17 16 16 15 15 14 13 12 11 10 9 10 10 9 8 7 7 7 8 8 9 9 9 10 10 11 11 12 12 12 13 12 12 12 12 10 9 9 9 10 10 9 8 8 9 10 11 11 10 10 11 11 12 12
21 20 19 17 14 13 14 18 19 17 15 12 11 11 12 11 11 13 14 16 16 15 17 17 16 15 15 14 15 16 16 17 16 16 15 15 15 14 12 11 10 10 9 9 9 8 7 7 7 7 7 8 8 8 8 9 9 10 11 11 11 11 11 10 10 9 8 7 7 8 9 9 8 7 7 8 9 9 10 10 10 10 11 12 12
21 19 18 16 15 13 13 16 19 20 18 16 14 14 14 14 13 14 15 16 16 12 14 16 15 15 14 14 15 15 15 16 16 16 15 15 16 15 14 12 9 9 9 9 8 8 8 7 7 7 7 7 7 6 7 7 8 8 9 10 10 10 9 9 8 8 8 7 7 7 8 8 7 7 8 8 7 7 9 10 9 9 11 11 11
20 19 18 17 16 13 13 15 17 18 18 18 16 15 16 15 15 15 15 17 17 12 12 14 15 14 13 14 14 14 14 15 16 16 15 14 14 14 14 13 10 8 9 9 8 8 8 7 6 6 6 6 6 5 6 6 7 8 8 8 9 9 8 7 7 7 7 7 7 6 6 7 6 6 9 8 6 7 8 9 8 9 10 10 10
19 19 17 17 16 14 13 13 14 16 17 19 17 16 16 15 15 15 16 17 18 15 12 12 14 14 14 14 14 14 13 14 15 15 14 13 13 12 12 12 10 8 9 9 8 7 7 6 5 5 5 5 5 5 6 5 6 6 7 7 7 8 7 6 6 6 6 5 5 5 5 5 5 5 7 7 6 7 8 7 8 8 8 8 9
19 18 18 18 16 15 14 12 13 14 15 17 16 16 16 15 14 15 16 17 18 16 13 11 12 13 15 15 14 14 13 14 14 13 14 13 12 11 10 10 10 10 9 8 7 7 6 5 4 4 4 4 4 5 6 5 5 5 6 6 6 7 6 6 6 6 5 5 4 3 3 4 5 5 6 6 6 6 6 5 6 7 7 8 7
18 17 18 18 16 15 15 14 13 13 14 15 15 16 17 16 14 14 16 17 17 17 15 12 10 11 14 15 14 14 14 14 14 13 13 12 10 9 9 10 12 10 8 8 7 6 5 4 4 4 4 4 4 5 6 5 5 5 5 5 5 6 6 5 5 6 5 4 3 2 2 2 3 5 6 6 6 5 5 5 5 6 6 8 8
17 17 19 19 16 15 15 14 14 14 14 14 14 15 17 17 15 14 14 15 17 17 16 15 13 10 11 12 11 11 12 12 12 11 10 10 9 10 12 13 12 10 8 7 6 6 5 4 4 4 4 4 4 5 5 5 5 5 5 4 5 5 6 5 4 4 4 3 2 2 1 2 3 4 5 6 6 6 6 7 6 6 7 8 8
17 17 18 19 16 15 15 14 14 15 14 14 14 16 17 17 16 15 13 13 15 16 16 16 16 14 11 10 9 8 9 9 10 10 11 12 14 15 15 13 11 9 8 7 6 5 5 5 4 4 4 4 4 4 4 4 4 4 4 3 4 4 4 3 2 2 2 2 2 2 1 2 3 5 5 5 6 6 7 7 7 6 8 9 7
18 17 16 18 16 15 16 16 15 14 14 13 15 17 17 17 17 17 15 13 13 15 15 15 15 16 16 14 13 13 13 13 14 15 15 16 16 15 13 11 9 8 7 6 6 5 5 5 4 4 4 4 4 4 4 3 3 3 3 3 2 3 3 3 2 1 1 1 1 2 1 2 4 6 5 5 5 6 7 7 7 7 8 9 8
21 18 16 16 16 15 16 17 15 14 14 14 16 17 16 17 18 18 18 15 14 14 13 13 13 15 17 17 17 16 16 16 16 16 14 13 13 12 10 9 8 7 6 6 6 5 5 5 4 4 3 3 3 4 3 3 3 3 3 2 1 1 2 2 3 1 1 1 2 2 2 2 5 6 6 6 5 5 7 8 8 8 9 9 9
24 20 17 16 15 15 15 17 16 15 14 14 17 18 17 18 18 19 18 17 16 15 13 12 11 12 15 16 16 15 14 15 14 13 11 10 10 9 9 8 7 7 6 6 5 5 5 4 4 3 3 4 4 4 4 4 3 3 2 2 1 2 2 2 3 3 2 2 2 3 2 1 4 7 8 7 6 5 7 8 8 9 10 10 10
24 21 20 18 17 15 15 17 17 16 15 14 16 17 16 16 18 19 18 18 17 16 14 11 10 10 12 13 13 13 12 12 11 10 9 8 8 8 7 7 7 6 6 6 5 5 4 4 3 3 4 5 5 4 4 4 3 3 2 2 3 4 3 3 4 4 4 3 3 3 3 2 3 6 8 8 7 6 6 7 8 9 10 10 10
23 21 21 20 19 18 16 16 17 16 15 14 15 14 14 15 16 17 16 16 17 15 14 12 10 9 10 10 9 10 10 9 9 8 8 7 7 7 7 6 6 6 5 5 4 4 3 2 2 2 3 4 4 4 4 4 4 3 3 3 5 5 5 5 6 6 5 4 4 4 4 4 4 5 8 9 8 7 6 7 8 9 10 11 11
21 20 20 20 20 20 18 17 17 17 15 14 14 13 12 13 13 14 14 15 16 15 13 12 11 10 10 9 9 8 8 8 8 8 7 7 7 6 6 6 5 5 4 3 3 2 1 1 1 2 3 3 3 3 4 3 3 2 2 4 6 7 7 7 8 7 7 6 5 6 6 5 6 6 7 9 9 8 7 8 8 9 10 11 11
20 20 19 19 20 21 19 18 19 18 16 14 15 13 11 12 12 12 13 13 14 14 12 12 11 11 10 10 9 9 9 8 8 8 7 6 6 6 5 5 4 4 4 3 2 0 0 1 1 3 4 4 4 4 4 4 4 2 2 4 5 7 8 8 9 9 8 7 6 6 6 6 6 7 8 9 10 9 9 9 9 9 10 10 11
19 20 20 18 19 20 19 18 19 19 18 16 14 14 12 11 11 11 12 13 13 12 12 11 11 11 10 10 10 9 9 8 8 8 7 6 6 6 6 5 4 4 4 3 2 1 1 2 4 5 5 5 6 6 6 6 6 4 3 5 5 7 9 8 9 10 9 8 8 7 6 6 6 6 8 9 11 10 9 9 9 10 10 10 11
19 19 20 19 17 18 19 18 19 19 18 17 15 14 13 11 11 11 11 11 11 11 11 11 11 11 10 10 10 10 9 9 8 8 7 7 6 6 6 5 5 4 4 3 2 2 3 4 5 7 7 7 8 8 9 9 8 7 5 6 6 7 9 9 9 10 9 9 9 8 6 7 7 6 7 8 10 11 11 10 10 10 10 11 11
20 19 19 19 18 17 17 17 19 19 18 18 17 15 13 12 11 11 10 10 10 11 11 11 11 11 11 10 10 10 10 10 9 8 7 7 6 5 5 5 4 4 4 3 3 3 4 6 7 8 9 9 9 10 11 12 11 9 7 7 8 8 9 9 10 10 10 10 10 9 8 7 7 7 8 9 11 12 13 11 11 11 11 11 11
20 19 20 20 19 18 16 16 18 19 18 18 17 15 14 13 12 11 11 11 11 12 12 12 12 11 11 10 10 11 10 10 8 7 6 6 6 6 5 4 4 4 3 3 4 5 6 7 8 9 10 10 11 12 13 13 13 12 10 10 10 10 10 9 10 11 11 11 11 10 8 8 7 6 8 11 12 13 14 13 12 12 12 12 12
20 20 20 20 20 19 17 16 17 18 19 18 17 16 15 15 14 12 12 13 13 12 12 12 12 11 11 11 10 10 10 10 8 6 6 6 6 6 6 5 5 5 4 5 6 6 8 9 9 9 10 11 12 12 13 14 14 14 13 12 13 13 12 12 12 12 12 12 11 9 8 8 7 6 8 10 11 13 14 14 15 15 14 13 13
20 20 20 20 20 19 18 17 17 18 19 19 19 17 16 16 16 14 13 14 13 13 12 11 11 12 12 11 10 10 10 10 9 8 8 7 7 6 6 6 7 6 6 6 7 7 8 9 9 9 9 11 12 13 14 15 15 15 16 15 15 15 14 14 13 13 13 13 11 9 8 7 7 8 9 10 11 13 14 15 16 17 16 14 14
19 19 20 20 19 19 18 18 18 19 19 20 20 18 17 17 17 16 15 15 14 13 13 12 12 12 12 11 10 10 10 10 10 10 9 8 7 6 5 6 7 6 6 7 7 7 9 9 9 9 9 11 12 13 14 16 17 17 18 18 18 17 16 14 13 13 12 12 12 11 9 8 8 11 12 12 13 14 15 15 16 18 19 17 15
19 20 19 18 17 18 19 18 19 20 20 20 20 19 18 18 18 16 16 16 15 15 14 13 13 13 12 11 11 11 10 10 10 11 10 9 8 6 5 5 7 6 6 7 7 8 9 9 9 10 10 11 13 14 15 16 18 19 20 19 19 17 16 15 14 12 11 11 12 11 11 10 9 13 15 15 15 15 16 15 15 17 19 19 17
20 20 20 18 17 18 19 19 19 21 20 20 21 20 19 18 18 18 17 17 16 15 14 13 13 13 13 12 12 11 10 10 10 10 11 11 8 6 5 5 6 5 5 7 7 8 9 10 10 10 11 12 13 14 16 18 18 19 19 19 18 18 17 16 15 13 12 12 11 11 11 10 9 11 14 16 15 16 16 15 16 18 17 18 19
20 21 21 20 19 19 20 20 20 21 21 20 21 20 19 19 19 19 18 17 17 15 13 12 13 14 14 13 12 12 11 10 10 9 10 10 8 7 6 5 6 5 5 6 7 8 10 10 10 11 12 13 15 16 17 18 18 18 18 18 18 18 17 17 16 14 13 12 12 10 9 9 8 9 12 14 14 14 16 15 17 18 17 17 18
20 20 20 21 21 20 21 21 21 22 21 21 21 21 20 20 20 20 19 18 17 15 13 12 13 14 14 13 12 12 11 10 9 8 8 8 7 7 6 6 6 5 5 6 7 9 11 11 11 12 14 15 16 17 17 17 17 16 17 18 18 18 17 16 16 14 13 12 11 10 8 7 7 8 10 12 13 12 13 14 16 16 16 16 17
19 19 21 22 21 21 21 22 22 22 21 21 21 20 21 21 21 20 19 19 17 15 14 13 13 14 13 12 12 11 10 9 8 7 7 6 6 7 7 7 7 5 6 7 8 10 12 13 14 14 15 16 16 16 16 16 16 16 16 18 18 18 17 16 15 14 12 11 10 9 7 7 6 7 7 8 9 9 10 12 14 15 15 15 16
20 21 21 21 21 22 22 22 23 22 22 22 21 21 21 21 21 20 19 18 17 16 15 14 13 13 12 12 11 10 10 9 7 6 6 7 8 8 8 8 8 7 8 9 10 12 14 15 15 14 14 14 14 14 14 15 15 15 16 17 18 18 17 16 15 13 12 11 10 9 8 7 6 5 5 5 6 7 9 12 13 15 15 16 15
21 22 21 22 22 22 23 23 23 23 23 22 21 21 21 21 20 20 18 17 16 16 16 15 13 13 12 11 11 10 10 9 8 7 7 8 8 9 8 8 8 8 9 11 12 14 14 14 13 12 11 12 13 12 12 14 14 15 16 17 18 18 17 16 15 14 13 11 10 9 8 7 6 6 6 7 7 8 10 13 15 16 16 16 15
22 21 21 22 23 23 23 24 24 24 23 22 21 21 21 21 20 19 17 17 16 16 16 15 13 13 12 11 11 11 10 9 8 7 7 8 9 8 8 7 7 8 9 11 12 14 13 12 10 10 10 11 11 11 12 13 14 15 16 18 18 18 17 15 15 15 12 10 9 8 6 5 6 8 8 8 8 8 10 14 16 17 18 17 16
22 23 23 23 23 23 24 25 25 24 23 23 21 20 21 21 20 19 18 17 16 16 16 14 13 12 12 11 11 11 11 9 8 7 7 7 8 8 7 7 7 8 10 11 13 13 10 8 7 8 9 10 10 10 11 13 15 16 17 18 18 18 17 15 14 14 12 10 8 7 6 5 7 8 9 8 9 9 11 13 15 17 17 16 14
24 24 24 23 23 23 24 25 26 25 24 23 22 20 20 20 20 19 18 17 17 16 15 14 13 12 12 11 11 11 11 10 9 8 8 7 7 8 7 6 7 8 10 11 11 10 7 6 5 7 8 9 9 9 10 12 15 17 17 18 18 17 16 14 13 12 10 10 8 7 6 6 6 7 8 8 10 11 11 11 13 15 15 13 12
26 25 24 24 24 23 23 25 26 26 25 24 23 20 20 20 19 18 18 17 17 16 15 14 13 13 13 12 11 11 11 11 10 9 9 8 8 9 7 6 7 8 9 10 9 8 6 5 5 6 7 7 8 9 10 12 15 16 17 18 18 17 14 12 11 10 9 9 8 7 6 6 6 7 8 9 10 10 10 11 12 12 11 11 11
25 25 25 26 25 24 24 25 25 26 25 24 23 22 20 19 18 18 18 17 17 16 15 14 14 14 13 12 11 11 11 12 10 10 9 9 10 10 9 8 8 8 8 8 9 9 7 6 5 5 6 6 7 8 10 12 15 16 18 17 16 15 13 11 10 8 8 9 9 8 7 7 8 8 8 10 10 9 9 10 9 7 7 9 10
25 25 25 25 25 25 25 25 25 25 25 25 24 23 21 20 18 18 18 18 17 16 15 15 15 14 14 13 12 11 12 12 11 10 10 10 12 13 12 11 9 9 8 8 9 9 7 6 5 5 6 6 6 8 10 12 14 16 17 16 15 14 11 9 8 8 8 10 10 9 8 9 10 10 9 10 10 10 10 8 5 5 6 7 8
25 25 25 26 26 25 25 25 25 25 25 25 25 24 23 21 20 20 20 20 18 17 16 17 16 15 15 14 13 12 12 12 12 11 11 12 13 14 14 13 11 10 9 9 10 10 9 8 5 5 6 6 7 8 9 12 15 15 15 15 14 12 9 7 7 8 9 10 10 10 9 10 11 11 10 10 10 10 9 6 4 5 6 7 8
25 25 26 27 27 27 26 26 26 26 26 26 26 26 25 24 22 23 23 22 20 19 18 18 18 17 16 15 14 13 13 13 13 12 12 12 12 13 14 14 12 10 9 9 9 10 9 8 6 6 7 6 7 8 10 13 13 12 13 16 15 11 8 7 9 10 9 9 10 9 9 9 11 12 12 11 10 10 8 5 4 6 8 9 9
25 26 27 28 28 27 28 28 27 27 27 28 28 28 27 26 24 24 24 23 21 20 20 20 19 18 17 17 16 15 15 14 14 14 13 12 12 11 11 12 12 10 9 8 8 8 8 6 5 6 6 6 8 9 11 11 9 8 9 11 11 12 8 7 11 12 8 10 11 9 9 8 10 12 12 11 11 10 7 6 6 7 10 10 9
27 28 29 29 29 28 28 28 28 28 28 29 29 29 28 27 25 24 23 23 22 21 20 20 19 18 19 18 18 18 17 16 15 15 14 14 13 12 10 10 10 11 9 8 8 7 7 6 5 6 6 7 9 10 11 8 7 8 7 4 3 7 5 5 15 14 8 12 12 9 8 8 10 10 10 11 11 9 7 7 7 8 10 9 7
26 28 28 28 29 29 29 29 29 29 29 29 29 29 28 26 25 24 22 21 21 20 20 21 21 20 20 20 19 19 19 17 16 15 15 15 15 13 12 10 9 11 11 9 9 8 7 7 6 7 7 8 9 10 10 9 9 7 3 2 1 2 1 4 13 11 8 11 9 8 9 9 10 10 10 12 10 8 7 7 7 8 9 7 5
26 29 30 30 30 31 30 30 30 29 29 29 29 28 27 25 24 22 20 19 20 19 20 22 23 22 21 21 20 19 20 18 17 16 16 15 15 14 13 11 9 10 12 11 10 9 8 8 8 8 8 9 9 10 11 10 11 8 4 2 1 1 1 3 8 6 8 10 6 7 9 9 11 10 11 12 8 7 6 5 6 8 8 6 5
28 30 32 32 32 32 31 30 30 30 29 29 28 28 27 26 24 22 21 19 20 20 21 22 23 23 22 20 19 19 19 18 17 16 15 15 15 15 14 12 10 9 12 13 12 11 10 10 9 9 9 9 10 10 12 12 11 10 7 5 4 3 3 4 4 3 8 9 6 8 8 8 11 10 10 10 6 5 4 5 6 6 5 5 4
29 30 31 32 32 31 31 31 31 31 30 29 28 28 28 27 26 25 24 23 22 23 23 22 22 22 20 20 19 19 19 18 17 17 15 15 15 15 14 13 11 10 11 13 14 12 11 11 10 10 10 10 10 10 12 13 12 9 8 6 7 7 7 5 2 2 5 6 10 13 7 7 10 8 9 8 3 3 3 4 5 4 3 4 4
29 29 30 31 31 31 31 31 31 31 30 29 29 29 28 28 28 27 25 25 26 25 24 22 22 21 20 20 20 20 20 19 18 17 16 15 15 16 15 14 13 11 11 13 15 14 12 11 11 11 10 10 11 11 12 13 12 11 9 8 8 8 9 8 6 4 2 2 8 10 6 9 11 7 8 7 3 2 3 5 6 4 2 2 3
27 28 30 31 31 31 30 30 31 30 30 29 29 29 29 28 28 27 26 26 27 26 24 22 21 21 20 20 20 21 21 20 19 18 17 16 15 16 16 15 14 13 12 12 14 15 13 12 11 11 11 11 11 12 13 13 13 13 12 11 9 9 9 6 4 4 3 3 4 3 7 11 10 8 7 6 4 2 3 6 6 4 2 1 2
25 27 28 28 29 30 30 29 29 29 29 29 29 29 29 29 28 28 27 27 26 25 23 21 20 20 20 20 19 19 19 20 19 18 18 17 17 16 16 16 15 14 12 12 13 14 14 13 12 12 12 12 12 12 13 13 13 15 15 14 11 10 8 3 1 1 2 6 6 4 7 8 6 8 7 5 5 2 2 4 3 3 3 2 1
23 23 23 24 25 28 29 28 27 28 28 29 29 30 30 29 29 29 29 28 27 25 23 21 20 20 20 20 19 18 18 18 18 17 17 18 18 18 17 17 16 15 13 12 13 13 14 14 13 14 14 14 14 14 14 14 13 15 15 16 15 14 11 6 5 4 3 7 8 4 8 8 7 8 6 5 5 2 1 3 2 2 2 1 1
Wind_Direction
159 155 155 150 145 145 139 136 136 137 134 130 129 129 132 136 140 143 147 149 153 156 153 150 151 147 144 144 148 150 147 145 144 145 143 141 141 140 136 131 131 126 119 120 123 120 115 107 98 93 91 89 89 88 86 85 88 89 86 86 88 91 94 98 104 105 107 104 100 97 94 92 88 90 94 101 102 103 104 104 118 117 109 109 110
155 154 155 150 147 146 139 135 138 138 135 135 131 129 133 139 139 140 143 145 148 152 152 151 148 145 143 141 146 149 147 147 145 145 144 143 141 138 138 136 136 130 123 126 128 124 118 110 102 97 94 92 92 90 86 85 89 90 88 88 90 90 91 94 100 104 110 107 103 98 93 93 90 88 84 92 105 107 105 98 109 115 109 109 111
150 154 155 150 148 148 140 135 138 137 139 143 133 126 126 133 132 130 136 142 144 145 151 153 146 142 143 141 144 147 145 146 145 143 142 141 140 137 137 138 139 134 126 130 132 128 121 114 108 103 99 96 93 90 88 86 88 88 88 92 96 95 93 93 97 101 106 106 107 109 106 104 96 92 87 86 102 107 102 96 99 107 110 112 112
150 153 154 150 148 149 140 134 136 138 145 145 131 120 116 123 124 120 126 134 136 143 155 159 154 147 144 142 146 148 148 150 147 145 143 141 143 140 139 139 140 139 134 134 135 133 128 123 116 109 103 98 93 89 88 88 90 91 94 97 101 100 98 97 99 101 103 108 116 126 128 123 109 100 101 92 98 109 108 106 107 108 110 114 115
151 151 153 151 148 148 138 133 136 142 149 148 136 127 121 126 133 130 125 121 127 149 158 154 155 154 150 148 149 152 155 156 151 149 148 147 146 143 144 141 139 144 143 139 139 139 138 134 124 115 107 102 95 90 89 92 96 100 104 106 109 109 107 105 108 110 110 115 119 126 133 131 120 111 115 105 97 110 117 118 118 118 115 114 116
152 151 153 151 149 147 138 136 139 143 146 143 138 138 137 138 142 142 134 122 123 143 149 146 154 157 155 154 154 155 157 156 153 156 156 154 151 149 150 140 136 147 147 146 144 145 146 138 127 118 108 103 98 93 91 96 104 110 112 115 119 118 117 114 115 119 116 118 114 114 122 126 123 114 118 115 96 102 119 125 125 122 121 121 121
153 153 152 152 151 146 142 144 141 139 138 137 138 143 144 143 143 141 139 129 127 141 145 144 153 157 158 160 159 157 156 153 155 162 159 157 157 158 154 141 140 155 152 151 149 149 149 140 129 117 109 106 102 97 94 96 106 114 117 120 123 123 125 124 116 118 119 118 113 109 116 123 124 114 116 120 109 106 113 123 127 123 124 128 130
153 154 151 152 152 149 149 152 141 136 137 137 139 141 142 145 144 140 139 132 132 146 153 146 146 152 157 161 161 159 161 158 157 161 159 159 162 162 153 141 150 169 161 155 154 152 151 145 133 120 115 112 107 104 103 103 108 117 121 121 125 128 133 135 126 121 123 120 114 113 117 125 131 127 124 127 128 123 118 121 128 131 133 136 136
154 155 151 152 153 154 157 155 144 139 140 139 139 139 139 143 146 144 139 136 136 142 151 151 147 151 153 155 157 158 163 165 160 158 159 163 163 157 147 149 166 176 167 159 157 155 155 152 142 131 128 123 114 113 115 119 120 125 130 133 137 138 139 135 129 126 125 119 110 112 118 137 149 150 148 142 136 130 129 133 140 143 146 148 146
154 159 155 153 153 158 162 158 148 143 143 142 139 137 138 142 146 144 138 137 139 140 146 149 153 164 157 150 151 155 161 164 162 160 161 164 161 154 161 175 180 177 166 161 160 160 159 156 154 149 145 134 123 124 129 133 130 132 138 143 143 145 144 136 132 130 129 120 104 104 123 174 182 173 169 165 161 153 151 157 161 160 156 156 160
155 166 158 151 153 159 163 160 151 147 148 145 141 139 140 142 144 141 136 137 139 142 145 147 154 173 168 153 151 157 161 160 162 165 165 168 171 172 180 185 180 171 164 163 164 166 169 170 172 166 155 141 134 137 138 141 138 136 139 137 139 146 147 147 146 134 132 127 115 113 129 200 212 202 190 183 178 173 175 169 170 180 172 164 165
156 168 158 147 149 155 156 157 151 148 150 148 144 144 143 141 140 140 138 139 141 142 143 148 153 162 165 157 159 165 166 165 169 173 178 182 183 182 181 181 172 165 165 165 168 172 180 183 182 173 160 152 148 147 146 146 143 144 146 141 140 147 153 166 188 153 134 133 139 145 153 210 215 220 213 205 194 180 184 178 175 191 183 173 170
152 167 159 145 144 146 147 152 151 148 148 149 147 146 146 141 139 140 138 139 144 141 141 148 151 154 155 157 164 170 171 172 173 175 183 184 181 179 173 170 164 161 164 167 173 180 185 187 186 178 167 164 163 161 161 158 156 159 161 157 152 158 173 199 223 223 155 157 176 185 216 226 211 219 220 217 208 187 190 191 186 197 195 184 179
149 163 157 145 143 143 147 153 153 152 150 148 149 149 147 142 140 140 138 139 140 138 142 149 152 153 153 158 163 167 168 168 170 172 180 180 172 169 164 161 160 160 165 172 182 189 193 191 190 185 177 179 187 188 186 185 185 184 182 177 173 184 210 226 235 259 259 219 231 241 260 229 202 210 221 220 212 195 195 200 196 201 206 199 190
148 159 155 148 149 153 156 156 156 158 158 153 150 150 148 143 142 142 141 141 139 142 148 151 157 155 151 156 158 159 160 159 161 163 167 168 161 159 159 157 158 163 173 185 192 198 203 202 202 203 205 211 213 211 208 210 206 206 212 218 236 235 239 255 256 268 279 245 248 269 280 231 196 206 217 220 212 205 201 204 203 206 211 211 203
147 157 154 149 156 164 163 160 161 163 164 160 153 153 153 149 147 147 145 143 142 145 148 150 161 154 145 147 147 150 151 149 151 150 154 157 155 157 159 159 165 176 191 202 209 216 220 219 222 228 234 237 236 235 239 239 235 238 255 276 272 260 244 260 270 272 277 251 238 265 275 237 202 210 218 223 215 209 208 206 208 212 215 217 216
145 153 151 149 158 165 167 167 166 166 168 164 160 161 158 155 153 152 150 149 146 146 149 153 160 152 143 142 141 145 144 144 146 149 156 158 162 168 169 172 181 189 202 213 223 232 238 246 250 260 256 257 262 263 265 265 267 276 304 301 279 267 253 256 263 266 274 263 239 241 256 242 221 219 222 227 222 213 213 210 211 218 219 219 220
146 151 150 151 156 159 167 172 171 169 170 168 168 169 162 158 157 156 155 154 149 148 154 156 158 156 152 151 150 152 152 155 160 162 165 166 174 177 176 180 184 189 203 214 226 237 266 315 290 267 260 267 272 268 275 282 290 306 310 275 261 261 258 259 261 263 270 269 254 236 239 245 237 231 227 228 227 220 215 212 214 219 224 225 224
150 152 152 153 154 156 165 172 173 172 173 174 172 171 166 163 162 160 158 154 149 150 157 159 161 161 160 161 161 163 164 167 169 168 169 172 180 183 182 185 184 189 209 215 217 212 23 300 269 261 262 271 278 280 288 294 295 301 280 262 260 263 263 264 266 268 270 270 264 248 238 240 239 239 234 228 229 227 220 217 218 219 224 228 229
155 154 155 158 158 157 161 169 176 176 176 176 173 171 168 168 166 162 159 155 152 153 160 163 166 164 165 167 166 169 169 171 174 175 176 179 191 196 190 189 191 200 220 222 214 225 240 252 257 262 266 276 286 295 297 295 291 290 273 266 266 263 265 266 266 267 271 275 270 257 245 237 235 242 240 231 231 232 228 226 226 223 223 228 231
160 160 158 161 166 164 162 169 177 178 177 174 174 172 168 170 168 164 161 158 158 161 165 168 171 169 171 173 171 175 176 177 182 182 184 189 202 211 199 192 199 206 221 223 219 233 247 258 263 268 275 286 294 300 297 290 284 280 266 259 261 266 274 275 269 269 273 280 277 264 252 243 242 252 252 241 237 237 235 233 235 232 227 229 232
164 165 165 165 170 174 169 169 174 177 178 175 175 171 166 171 172 169 165 166 170 170 173 175 176 176 177 180 178 182 182 184 186 185 192 196 201 217 213 204 208 214 227 235 241 252 264 270 274 279 287 295 298 296 293 291 289 287 282 268 259 264 274 279 281 280 278 279 278 273 264 252 251 262 264 254 245 241 238 235 237 240 235 232 232
168 168 170 172 175 178 177 173 172 175 178 176 175 170 168 175 179 176 171 174 179 179 181 180 179 181 184 188 187 188 189 190 191 188 200 206 201 210 223 224 223 230 247 260 268 272 273 273 277 285 292 295 294 293 293 296 299 301 299 286 275 273 277 286 292 289 286 283 277 277 274 267 265 266 262 256 250 248 244 240 239 240 239 235 231
173 171 173 178 181 181 179 178 176 175 178 177 174 172 173 179 182 181 176 176 180 182 186 184 183 186 189 192 194 195 198 198 196 196 206 217 213 209 217 230 233 237 249 259 263 265 268 271 276 283 290 294 296 297 299 302 305 307 306 300 295 293 290 291 293 292 295 296 289 284 281 279 278 267 257 255 252 252 249 243 241 239 238 237 233
174 173 176 181 185 185 182 181 180 179 181 180 178 177 178 182 182 182 182 180 180 182 184 187 188 191 193 195 198 201 206 206 206 208 212 222 227 219 216 230 237 235 237 250 256 261 267 273 279 285 291 297 300 302 303 305 306 307 306 306 305 303 300 297 295 295 297 297 296 294 290 286 285 273 261 258 251 246 245 244 243 242 241 238 236
175 176 181 184 187 187 186 185 183 184 185 186 184 183 182 185 184 182 185 185 187 188 185 189 193 196 197 198 202 205 209 212 213 217 223 231 235 228 224 236 247 248 249 258 264 267 270 275 282 287 293 296 297 300 303 305 305 306 307 308 309 309 311 310 306 303 299 296 295 296 295 289 280 270 261 258 255 249 245 244 245 245 245 243 239
179 182 183 185 187 188 189 189 187 187 188 190 190 190 188 188 188 186 188 189 192 195 192 192 196 200 202 203 206 209 212 217 222 226 232 238 237 233 234 243 253 260 263 268 270 270 271 276 282 287 292 294 296 301 304 305 306 308 309 310 311 313 316 319 318 311 305 304 300 296 295 294 282 268 263 261 260 256 252 250 252 251 248 249 247
181 185 187 186 186 189 191 192 191 190 190 192 194 194 192 191 192 193 193 195 198 200 199 200 203 205 207 207 208 210 217 223 230 235 236 237 239 245 253 255 257 262 266 268 270 271 273 279 284 288 292 295 297 302 306 308 309 310 311 312 314 314 316 323 326 320 314 315 312 304 297 295 285 268 263 262 261 258 256 252 254 256 252 251 250
184 187 190 192 191 191 193 195 194 193 192 193 195 196 196 194 197 199 198 201 205 205 207 207 208 208 206 205 206 209 217 224 231 236 236 238 246 260 268 266 264 269 269 265 269 274 275 280 286 291 295 297 300 304 306 307 309 311 313 317 320 320 318 321 326 323 319 319 316 311 307 302 289 269 257 256 261 262 259 254 254 257 258 254 251
189 188 191 196 196 196 196 197 197 196 195 195 197 197 197 198 200 203 203 206 209 210 212 209 206 205 203 204 208 212 218 225 231 235 240 248 261 274 280 278 274 276 275 270 273 276 278 282 287 292 296 299 301 303 303 304 308 314 317 322 326 325 322 322 323 319 317 322 316 311 318 319 298 280 264 254 257 264 265 264 261 261 259 257 254
193 191 194 198 199 200 200 200 200 199 198 198 199 198 199 201 202 204 206 208 210 212 213 208 204 203 202 205 212 217 222 228 232 237 248 263 279 286 289 285 277 276 280 281 281 281 282 286 289 291 294 296 299 300 299 300 308 318 322 326 328 328 328 325 319 314 314 320 321 317 322 326 308 288 279 263 262 271 276 275 272 270 266 261 258
196 196 198 199 201 204 205 204 202 202 201 201 201 200 201 202 203 205 207 210 212 213 212 208 208 208 208 211 216 220 224 228 231 240 258 276 290 295 290 278 273 277 283 287 288 286 287 288 290 291 291 293 294 295 297 299 308 320 324 327 328 329 331 327 321 318 317 318 322 324 322 321 313 301 303 303 291 282 281 280 276 274 272 266 259
200 200 199 200 202 206 208 207 205 206 206 204 205 205 204 203 205 207 209 211 214 215 211 209 213 214 214 217 219 221 224 226 232 246 265 284 298 301 288 270 272 283 289 292 291 291 292 290 288 287 286 287 288 292 298 301 311 320 324 325 326 328 328 327 328 328 323 318 321 330 329 322 321 326 327 323 310 293 284 284 282 279 278 273 265
200 200 200 201 203 205 209 210 208 209 211 208 207 208 209 207 208 210 212 215 217 215 211 213 218 217 217 219 219 220 221 224 234 252 270 287 304 308 289 270 279 292 296 301 301 300 297 286 278 277 278 280 284 292 298 305 315 320 323 325 325 327 326 326 333 336 330 322 328 338 334 324 326 329 328 319 309 299 292 289 287 285 282 280 275
200 200 202 202 203 205 208 210 209 210 212 211 209 209 211 211 212 214 216 219 218 214 213 216 220 219 221 221 220 219 218 223 237 255 271 284 304 309 289 272 286 299 306 309 304 300 290 271 266 268 271 276 282 293 301 309 318 321 324 327 326 327 325 327 335 340 336 329 333 337 330 326 330 330 325 317 305 297 295 291 286 284 283 279 272
202 201 201 201 202 205 208 209 210 210 211 212 211 212 212 211 213 215 216 218 215 214 216 218 219 221 224 224 223 221 220 225 236 253 267 276 294 301 291 282 289 298 306 304 291 282 270 257 260 263 270 279 286 297 305 312 318 322 325 327 327 327 326 329 335 338 340 340 338 333 328 326 333 337 329 321 311 300 299 299 292 287 285 278 268
203 202 200 199 200 203 207 209 210 210 211 213 213 215 213 211 212 212 213 214 214 217 217 218 219 222 226 226 225 226 225 227 235 248 258 266 277 285 288 283 283 292 299 290 269 261 259 258 265 269 276 282 289 299 309 317 321 324 326 326 327 329 329 332 333 332 338 345 342 331 322 318 326 334 329 326 322 310 304 305 299 291 282 273 268
203 202 200 199 198 201 205 209 211 211 211 213 214 215 213 211 212 212 213 214 218 220 220 221 222 223 228 230 231 231 229 229 236 245 251 260 265 271 274 271 273 285 288 271 255 254 253 258 272 279 283 287 293 302 313 322 325 326 327 327 330 332 331 333 332 327 330 337 336 327 317 315 318 319 318 325 325 318 312 307 300 293 284 277 275
201 202 200 198 197 200 205 208 211 213 213 214 216 215 214 214 216 218 219 220 222 224 225 226 224 226 230 234 236 233 230 232 238 244 251 259 260 261 265 266 269 278 278 255 246 251 250 258 271 276 287 297 301 306 318 324 326 327 328 332 337 337 336 336 335 329 326 329 327 318 313 315 317 314 318 326 325 321 320 320 316 307 298 289 287
200 200 199 197 197 198 203 206 210 213 212 213 214 215 214 216 220 222 223 224 224 226 228 227 228 230 233 235 235 233 233 237 240 243 251 258 258 257 260 266 267 271 274 253 243 250 257 266 272 276 288 296 300 307 319 325 324 325 330 338 345 346 345 354 357 342 331 329 320 310 310 315 316 315 319 327 328 323 320 320 323 311 305 302 298
198 198 198 198 197 198 202 205 209 211 210 210 210 212 213 215 219 222 223 224 224 227 229 228 230 233 234 236 235 234 238 241 241 241 249 256 257 256 257 263 262 261 267 254 245 251 256 265 269 275 281 283 293 306 318 324 326 329 334 338 345 355 7 25 14 351 337 336 329 319 318 318 320 324 329 332 331 326 317 297 295 310 312 310 310
195 197 199 200 198 199 202 205 207 209 210 210 209 211 213 214 217 220 223 225 225 228 229 229 231 233 235 237 237 238 240 242 241 242 249 254 256 259 261 263 255 248 252 246 244 252 253 258 269 274 273 279 296 309 317 324 327 328 334 333 339 355 15 38 9 356 348 346 348 344 336 325 324 328 332 332 327 327 323 303 296 310 313 309 310
196 197 201 201 198 200 203 206 207 208 210 211 210 212 216 217 219 222 223 225 227 230 233 234 234 236 238 240 242 242 239 241 243 245 251 255 257 262 267 271 252 237 239 240 241 252 258 259 267 272 273 289 304 312 318 328 326 322 334 330 329 350 2 16 358 356 0 352 352 353 341 327 324 328 331 332 333 338 336 323 309 306 308 305 303
195 198 201 199 198 201 204 206 208 209 211 211 213 215 217 219 221 224 227 229 231 234 237 238 237 238 238 241 245 242 238 242 245 249 255 257 257 259 265 275 258 236 232 236 239 245 258 259 260 267 276 292 303 310 313 322 327 322 328 320 267 343 331 349 347 348 357 349 342 342 339 332 332 337 341 340 343 347 342 332 312 298 299 295 289
195 198 200 200 201 203 205 207 209 211 213 214 214 215 215 216 217 221 226 229 231 234 236 235 234 236 238 240 242 239 238 243 247 251 256 255 255 256 260 269 265 244 233 234 238 241 248 253 257 265 274 286 293 300 302 308 320 312 284 272 291 337 263 330 336 326 339 342 334 336 339 342 343 345 347 343 341 340 335 323 302 290 287 277 277
198 200 201 202 204 206 206 208 210 212 215 216 214 213 213 213 213 213 215 219 222 227 229 230 231 233 237 240 239 237 237 242 244 247 252 253 253 255 258 262 267 257 241 236 238 240 245 249 257 266 272 280 283 290 296 301 311 302 280 269 275 276 269 320 338 303 328 337 346 346 342 347 347 346 349 343 329 330 324 304 297 290 273 256 266
200 202 202 203 205 207 206 208 212 214 216 216 214 213 213 213 214 214 215 217 219 225 229 231 233 234 239 241 238 237 238 241 244 246 249 253 255 256 257 258 262 267 255 243 239 241 247 250 255 265 272 278 278 282 292 300 307 293 276 275 281 280 276 286 281 269 324 327 336 346 353 357 351 347 352 346 324 337 343 316 306 304 271 240 251
200 201 202 203 205 206 207 208 211 214 216 216 214 214 214 214 216 217 219 221 224 229 231 233 236 238 241 242 240 239 241 244 246 246 249 253 255 255 254 255 258 265 264 251 243 242 247 250 252 259 269 275 275 281 289 297 300 286 277 282 289 293 286 279 275 285 312 301 324 340 348 349 349 348 356 355 334 313 335 331 312 307 307 247 242
199 201 202 204 205 206 207 208 210 213 215 216 216 217 218 218 217 217 219 224 229 233 235 236 237 239 242 243 243 243 243 245 246 247 249 252 252 252 251 252 255 262 264 255 245 243 246 250 251 256 265 272 274 279 285 292 295 289 284 286 293 299 294 296 302 301 314 296 298 321 326 338 345 341 349 0 355 319 309 323 306 286 299 281 242
201 202 203 204 206 206 207 207 210 213 215 216 217 218 219 218 218 218 220 224 229 232 235 236 237 239 241 243 244 244 243 243 244 246 249 251 250 249 249 250 255 261 263 256 247 243 245 249 253 257 262 269 273 276 281 288 294 295 289 286 290 293 294 312 357 3 347 296 278 277 303 320 328 326 340 354 351 349 315 325 308 277 282 276 248
202 202 203 204 206 208 208 207 212 217 218 218 218 219 219 219 220 221 223 225 227 229 231 234 235 236 239 243 244 243 241 242 245 247 248 249 250 248 247 250 255 259 260 256 251 248 249 252 256 260 263 267 272 276 280 283 289 296 295 288 286 286 288 282 280 331 357 265 264 279 298 309 310 308 329 340 331 336 338 339 331 300 282 253 255